Weather History for Fort Leonard Wood, MO

Change the Weather History Date:

Tuesday, April 16, 2013

  Actual Average Record
Temperature  
Mean Temperature 48 °F -  
Max Temperature 50 °F 66 °F 86 °F (2006)
Min Temperature 45 °F 48 °F 35 °F (2014)
Degree Days  
Heating Degree Days 17    
Moisture  
Dew Point 47 °F    
Average Humidity 100    
Maximum Humidity 100    
Minimum Humidity 100    
Precipitation  
Precipitation 0.02 in - - ()
Sea Level Pressure  
Sea Level Pressure 30.03 in    
Wind  
Wind Speed 10 mph (NNE)    
Max Wind Speed 15 mph    
Max Gust Speed 17 mph    
Visibility 5 miles    
Events Rain    
Averages and records for this station are not official NWS values.
T = Trace of Precipitation, MM = Missing Value Source: NWS Daily Summary

Daily Weather History Graph

Daily Weather History Graph

Search for Another Location

Airport:

Trip Planner

Search our weather history database for the weather conditions in past years. The results will help you decide how hot, cold, wet, or windy it might be!

Date:

Astronomy

Apr. 16, 2013 Rise Set
Actual Time 6:31 AM CDT 7:45 PM CDT
Civil Twilight 6:04 AM CDT 8:12 PM CDT
Nautical Twilight 5:32 AM CDT 8:45 PM CDT
Astronomical Twilight 4:58 AM CDT 9:19 PM CDT
Moon 10:53 AM CDT (4/16) 12:40 AM CDT (4/16)
Length of Visible Light 14h 08m
Length of Day
13h 13m
Waxing Crescent, 33% of the Moon is Illuminated
Apr 16
Waxing Crescent
Apr 18
First Quarter
Apr 25
Full
May 2
Last Quarter
May 9
New

Hourly Weather History & Observations

Time (CDT) Temp. Windchill Dew Point Humidity Pressure Visibility Wind Dir Wind Speed Gust Speed Precip Events Conditions
12:28 AM 51.8 °F - 51.8 °F 100% 29.92 in 1.0 mi NNW 10.4 mph - N/A   Mist
12:38 AM 51.8 °F - 51.8 °F 100% 29.93 in 1.0 mi NNW 12.7 mph - N/A   Mist
12:48 AM 50.0 °F - 50.0 °F 100% 29.93 in 1.2 mi NNW 12.7 mph - N/A   Overcast
12:58 AM 50.0 °F - 50.0 °F 100% 29.94 in 1.8 mi NNW 10.4 mph 17.3 mph N/A   Overcast
1:03 AM 50.0 °F - 50.0 °F 100% 29.93 in 2.0 mi NNW 12.7 mph - N/A   Overcast
1:13 AM 50.0 °F - 50.0 °F 100% 29.93 in 3.0 mi North 11.5 mph - N/A   Overcast
1:58 AM 49.6 °F - 49.6 °F 100% 29.98 in 8.0 mi NNW 15.0 mph - N/A   Overcast
2:04 AM 50.0 °F - 50.0 °F 100% 29.94 in 8.0 mi NNE 9.2 mph - N/A   Light Drizzle
2:15 AM 48.2 °F - 48.2 °F 100% 29.96 in 7.0 mi North 13.8 mph - N/A   Overcast
2:27 AM 48.2 °F - 48.2 °F 100% 29.94 in 6.0 mi NNE 11.5 mph - N/A Rain Light Rain
2:53 AM 46.4 °F 40.7 °F 46.4 °F 100% 29.95 in 8.0 mi NNE 12.7 mph - N/A   Overcast
2:58 AM 46.9 °F - 46.9 °F 100% 29.95 in 9.0 mi NE 10.4 mph - 0.00 in   Overcast
3:13 AM 46.4 °F 41.5 °F 46.4 °F 100% 29.93 in 10.0 mi ENE 10.4 mph - N/A   Overcast
3:33 AM 48.2 °F - 48.2 °F 100% 29.96 in 10.0 mi ENE 4.6 mph - N/A   Overcast
3:48 AM 48.2 °F - 48.2 °F 100% 29.98 in 10.0 mi NNW 8.1 mph - N/A   Overcast
3:58 AM 47.7 °F - 47.7 °F 100% 29.96 in 10.0 mi NE 8.1 mph - N/A   Overcast
4:23 AM 48.2 °F - 48.2 °F 100% 29.95 in 10.0 mi East 9.2 mph - N/A   Overcast
4:38 AM 48.2 °F - 48.2 °F 100% 29.97 in 10.0 mi NE 6.9 mph - N/A   Overcast
4:58 AM 47.8 °F - 47.8 °F 100% 29.97 in 10.0 mi NNE 6.9 mph - N/A   Overcast
5:38 AM 48.2 °F - 48.2 °F 100% 29.99 in 10.0 mi NNE 8.1 mph - N/A   Overcast
5:58 AM 47.1 °F - 47.1 °F 100% 29.99 in 10.0 mi NNE 5.8 mph - N/A   Overcast
6:58 AM 46.2 °F 41.7 °F 46.2 °F 100% 30.01 in 4.0 mi NNE 9.2 mph - N/A   Overcast
7:58 AM 46.2 °F 42.2 °F 46.2 °F 100% 30.04 in 4.0 mi NNE 8.1 mph - N/A   Overcast
8:58 AM 46.2 °F 42.2 °F 46.2 °F 100% 30.06 in 4.0 mi NNE 8.1 mph - N/A   Overcast
9:03 AM 46.4 °F 41.9 °F 46.4 °F 100% 30.06 in 4.0 mi NNE 9.2 mph - N/A   Light Drizzle
9:23 AM 46.4 °F 41.9 °F 46.4 °F 100% 30.06 in 5.0 mi North 9.2 mph - N/A   Overcast
9:24 AM 46.4 °F 42.4 °F 46.4 °F 100% 30.06 in 5.0 mi North 8.1 mph - N/A   Light Drizzle
9:58 AM 46.4 °F 41.5 °F 46.4 °F 100% 30.07 in 5.0 mi NNE 10.4 mph - 0.01 in   Light Drizzle
10:11 AM 46.4 °F 41.9 °F 46.4 °F 100% 30.06 in 5.0 mi NNE 9.2 mph - N/A   Overcast
10:26 AM 46.4 °F 41.9 °F 46.4 °F 100% 30.07 in 7.0 mi NNE 9.2 mph - N/A Rain Light Rain
10:51 AM 46.4 °F 41.5 °F 46.4 °F 100% 30.07 in 6.0 mi NNE 10.4 mph - N/A   Overcast
10:58 AM 45.7 °F 41.5 °F 45.7 °F 100% 30.07 in 5.0 mi NE 8.1 mph - 0.00 in   Overcast
11:41 AM 46.4 °F 42.9 °F 46.4 °F 100% 30.07 in 8.0 mi NNE 6.9 mph - N/A   Light Drizzle
11:58 AM 46.4 °F 41.9 °F 46.4 °F 100% 30.09 in 5.0 mi NNE 9.2 mph - 0.00 in   Light Drizzle
12:23 PM 46.4 °F 41.5 °F 46.4 °F 100% 30.06 in 2.5 mi NE 10.4 mph - N/A Rain Light Rain
12:28 PM 46.4 °F 42.4 °F 46.4 °F 100% 30.07 in 3.0 mi NE 8.1 mph - N/A Rain Light Rain
12:42 PM 46.4 °F 42.9 °F 46.4 °F 100% 30.07 in 10.0 mi North 6.9 mph - N/A   Overcast
12:58 PM 46.4 °F 42.9 °F 46.4 °F 100% 30.10 in 10.0 mi North 6.9 mph - 0.01 in   Overcast
1:50 PM 46.4 °F 43.5 °F 46.4 °F 100% 30.06 in 2.0 mi NNE 5.8 mph - N/A   Overcast
1:53 PM 46.4 °F 42.9 °F 46.4 °F 100% 30.06 in 4.0 mi North 6.9 mph - N/A   Overcast
1:58 PM 45.9 °F 42.3 °F 45.9 °F 100% 30.08 in 2.0 mi NNE 6.9 mph - N/A   Overcast
2:03 PM 46.4 °F 42.9 °F 46.4 °F 100% 30.06 in 2.5 mi North 6.9 mph - N/A   Overcast
2:13 PM 46.4 °F 42.4 °F 46.4 °F 100% 30.06 in 1.8 mi NNE 8.1 mph - N/A   Overcast
2:58 PM 45.7 °F 41.0 °F 45.7 °F 100% 30.08 in 1.2 mi NNE 9.2 mph - N/A   Overcast
3:23 PM 46.4 °F 43.5 °F 46.4 °F 100% 30.06 in 1.0 mi NE 5.8 mph - N/A   Mist
3:28 PM 46.4 °F 42.4 °F 46.4 °F 100% 30.05 in 1.2 mi NE 8.1 mph - N/A   Overcast
3:58 PM 46.0 °F 41.4 °F 46.0 °F 100% 30.07 in 1.5 mi NNE 9.2 mph - N/A   Overcast
4:08 PM 46.4 °F 41.9 °F 46.4 °F 100% 30.04 in 2.0 mi NE 9.2 mph - N/A   Overcast
4:13 PM 46.4 °F 41.5 °F 46.4 °F 100% 30.05 in 3.0 mi NNE 10.4 mph - N/A   Overcast
4:58 PM 46.4 °F 41.9 °F 46.4 °F 100% 30.07 in 7.0 mi NE 9.2 mph - N/A   Overcast
5:28 PM 46.4 °F 41.5 °F 46.4 °F 100% 30.05 in 7.0 mi NE 10.4 mph - N/A   Overcast
5:58 PM 47.3 °F - 47.3 °F 100% 30.07 in 10.0 mi NE 9.2 mph - N/A   Overcast
6:23 PM 46.4 °F 41.5 °F 46.4 °F 100% 30.06 in 4.0 mi NE 10.4 mph - N/A   Overcast
6:58 PM 46.6 °F - 46.6 °F 100% 30.08 in 7.0 mi NNE 9.2 mph - N/A   Overcast
7:58 PM 45.9 °F 42.3 °F 45.9 °F 100% 30.09 in 3.0 mi NE 6.9 mph - N/A   Overcast
8:58 PM 45.7 °F 40.6 °F 45.7 °F 100% 30.10 in 3.0 mi NE 10.4 mph - N/A   Overcast
9:03 PM 46.4 °F 41.9 °F 46.4 °F 100% 30.08 in 2.0 mi ENE 9.2 mph - N/A   Overcast
9:38 PM 46.4 °F 42.4 °F 46.4 °F 100% 30.09 in 3.0 mi NE 8.1 mph - N/A   Overcast
9:43 PM 46.4 °F 42.9 °F 46.4 °F 100% 30.09 in 2.5 mi NE 6.9 mph - N/A   Overcast
9:58 PM 46.4 °F 43.5 °F 46.4 °F 100% 30.11 in 3.0 mi ENE 5.8 mph - N/A   Overcast
10:58 PM 45.9 °F 43.6 °F 45.9 °F 100% 30.10 in 3.0 mi NE 4.6 mph - N/A   Overcast
11:13 PM 46.4 °F 43.5 °F 46.4 °F 100% 30.07 in 2.5 mi ENE 5.8 mph - N/A   Overcast
11:18 PM 46.4 °F 42.9 °F 46.4 °F 100% 30.07 in 3.0 mi ENE 6.9 mph - N/A   Overcast
11:58 PM 46.2 °F 42.2 °F 46.2 °F 100% 30.08 in 2.0 mi East 8.1 mph - N/A   Overcast